W5TTY Weather Reports


Display with metric or nautical units.
time (UTC)temp
F
wind
direction
speed
MPH
gust
MPH
rain 1hr
in
rain 24hr
in
rain mn
in
humidity
%
barometer
mb
20260901033342 86 143 3.0 7.0 0.00 0.00 0.00 57 1014.4
20260901032828 86 131 3.0 7.0 0.00 0.00 0.00 56 1014.4
20260901032401 86 140 3.0 8.0 0.00 0.00 0.00 56 1014.4
20260901031843 86 114 4.0 8.0 0.00 0.00 0.00 56 1014.3
20260901031354 87 141 3.0 8.0 0.00 0.00 0.00 56 1014.3
20260901030839 87 132 3.0 6.0 0.00 0.00 0.00 55 1014.3
20260901030334 87 183 2.0 6.0 0.00 0.00 0.00 55 1014.1
20260901025822 87 180 3.0 6.0 0.00 0.00 0.00 55 1014.1
20260901025325 87 181 2.0 8.0 0.00 0.00 0.00 54 1014.0
20260901024837 87 144 4.0 10.0 0.00 0.00 0.00 54 1014.0
20260901024323 88 130 3.0 10.0 0.00 0.00 0.00 54 1013.9
20260901023827 88 140 4.0 9.0 0.00 0.00 0.00 53 1013.8
20260901023338 88 121 4.0 8.0 0.00 0.00 0.00 53 1013.8
20260901022824 88 115 3.0 10.0 0.00 0.00 0.00 53 1013.7
20260901022329 88 123 4.0 10.0 0.00 0.00 0.00 52 1013.5
20260901021832 88 103 4.0 9.0 0.00 0.00 0.00 52 1013.5
20260901021317 89 137 3.0 9.0 0.00 0.00 0.00 52 1013.4
20260901020830 89 180 3.0 9.0 0.00 0.00 0.00 51 1013.4
20260901020337 89 144 4.0 9.0 0.00 0.00 0.00 51 1013.3
20260901015829 89 155 3.0 8.0 0.00 0.00 0.00 51 1013.3
20260901015332 89 150 3.0 9.0 0.00 0.00 0.00 50 1013.3
20260901014817 89 142 5.0 9.0 0.00 0.00 0.00 50 1013.2
20260901014333 90 168 6.0 14.0 0.00 0.00 0.00 49 1013.2
20260901013839 90 140 5.0 14.0 0.00 0.00 0.00 49 1013.3
20260901013331 90 148 6.0 12.0 0.00 0.00 0.00 49 1013.3
20260901012837 91 198 3.0 13.0 0.00 0.00 0.00 48 1013.3
20260901012324 91 154 7.0 13.0 0.00 0.00 0.00 48 1013.3
20260901011829 92 150 8.0 13.0 0.00 0.00 0.00 48 1013.3
20260901011342 92 132 9.0 16.0 0.00 0.00 0.00 47 1013.2
20260901010834 93 150 9.0 18.0 0.00 0.00 0.00 47 1013.2
20260901010340 93 121 9.0 17.0 0.00 0.00 0.00 47 1013.1
20260901005831 94 134 8.0 19.0 0.00 0.00 0.00 47 1013.1
20260901005333 94 146 5.0 10.0 0.00 0.00 0.00 47 1013.0
20260901004851 94 120 2.0 8.0 0.00 0.00 0.00 47 1012.8
20260901004359 94 136 3.0 8.0 0.00 0.00 0.00 47 1012.8
20260901003825 95 134 4.0 9.0 0.00 0.00 0.00 47 1012.7
20260901003333 95 122 5.0 9.0 0.00 0.00 0.00 47 1012.7
20260901002822 95 126 3.0 8.0 0.00 0.00 0.00 47 1012.8
20260901002333 96 109 2.0 7.0 0.00 0.00 0.00 47 1012.8
20260901001819 96 121 3.0 7.0 0.00 0.00 0.00 47 1012.8
20260901001321 96 130 3.0 7.0 0.00 0.00 0.00 47 1012.7
20260901000835 96 123 3.0 7.0 0.00 0.00 0.00 47 1012.8
20260901000321 96 130 4.0 8.0 0.00 0.00 0.00 47 1012.8
20260831235829 96 128 4.0 8.0 0.00 0.00 0.00 47 1012.7
20260831235340 97 116 1.0 8.0 0.00 0.00 0.00 47 1012.7
20260831234825 97 128 4.0 9.0 0.00 0.00 0.00 47 1012.7
20260831234328 97 103 5.0 10.0 0.00 0.00 0.00 47 1012.6
20260831233822 97 138 5.0 10.0 0.00 0.00 0.00 47 1012.6
20260831233328 97 92 4.0 12.0 0.00 0.00 0.00 47 1012.7
20260831232840 98 123 7.0 12.0 0.00 0.00 0.00 47 1012.5
20260831232323 98 107 4.0 8.0 0.00 0.00 0.00 48 1012.5
20260831231826 98 169 4.0 8.0 0.00 0.00 0.00 48 1012.7
20260831231337 97 155 4.0 8.0 0.00 0.00 0.00 48 1012.6
20260831230840 97 78 4.0 10.0 0.00 0.00 0.00 48 1012.7
20260831230325 97 107 5.0 10.0 0.00 0.00 0.00 48 1012.7
20260831225836 97 105 3.0 11.0 0.00 0.00 0.00 48 1012.8
20260831225321 98 101 6.0 11.0 0.00 0.00 0.00 48 1012.8
20260831224823 98 91 2.0 10.0 0.00 0.00 0.00 48 1012.8
20260831224355 98 130 7.0 12.0 0.00 0.00 0.00 49 1012.8
20260831223819 98 88 3.0 12.0 0.00 0.00 0.00 49 1012.8
20260831223353 98 109 4.0 8.0 0.00 0.00 0.00 49 1012.9
20260831222838 98 187 1.0 5.0 0.00 0.00 0.00 49 1012.9
20260831222319 98 215 1.0 7.0 0.00 0.00 0.00 50 1012.9
20260831221851 98 171 4.0 11.0 0.00 0.00 0.00 50 1013.0
20260831221345 98 134 7.0 11.0 0.00 0.00 0.00 50 1013.0
20260831220830 97 131 8.0 11.0 0.00 0.00 0.00 50 1013.0
20260831220342 97 107 5.0 11.0 0.00 0.00 0.00 51 1013.0
20260831215822 97 82 3.0 11.0 0.00 0.00 0.00 51 1013.1
20260831215329 97 116 6.0 13.0 0.00 0.00 0.00 51 1013.2
20260831214834 97 73 8.0 13.0 0.00 0.00 0.00 51 1013.1
20260831214325 98 77 7.0 12.0 0.00 0.00 0.00 51 1013.2
20260831213831 98 74 4.0 14.0 0.00 0.00 0.00 52 1013.3
20260831213340 98 166 6.0 10.0 0.00 0.00 0.00 52 1013.3
20260831212833 98 89 5.0 10.0 0.00 0.00 0.00 53 1013.2
20260831212339 98 120 5.0 10.0 0.00 0.00 0.00 53 1013.3
20260831211823 98 188 3.0 7.0 0.00 0.00 0.00 53 1013.3
20260831211335 98 198 2.0 7.0 0.00 0.00 0.00 54 1013.4
20260831210821 97 150 2.0 10.0 0.00 0.00 0.00 54 1013.5
20260831210328 97 168 4.0 10.0 0.00 0.00 0.00 55 1013.6
20260831205842 97 175 5.0 11.0 0.00 0.00 0.00 55 1013.6
20260831205324 97 84 6.0 11.0 0.00 0.00 0.00 55 1013.8
20260831204836 97 101 6.0 11.0 0.00 0.00 0.00 55 1013.8
20260831204321 98 65 6.0 13.0 0.00 0.00 0.00 56 1013.9
20260831203854 98 98 8.0 13.0 0.00 0.00 0.00 56 1014.0
20260831203320 98 96 4.0 11.0 0.00 0.00 0.00 57 1014.0
20260831202829 98 111 6.0 11.0 0.00 0.00 0.00 58 1014.2
20260831202334 97 114 6.0 14.0 0.00 0.00 0.00 58 1014.3
20260831201845 97 157 5.0 14.0 0.00 0.00 0.00 58 1014.3
20260831201348 97 177 6.0 14.0 0.00 0.00 0.00 59 1014.4
20260831200844 97 190 5.0 14.0 0.00 0.00 0.00 59 1014.4
20260831200329 96 159 8.0 13.0 0.00 0.00 0.00 60 1014.5
20260831195839 96 153 5.0 9.0 0.00 0.00 0.00 60 1014.6
20260831195325 96 192 5.0 13.0 0.00 0.00 0.00 61 1014.6
20260831194829 96 123 5.0 14.0 0.00 0.00 0.00 61 1014.8
20260831194324 96 144 5.0 12.0 0.00 0.00 0.00 62 1014.8
20260831193849 95 228 3.0 16.0 0.00 0.00 0.00 63 1014.9
20260831193341 95 130 6.0 13.0 0.00 0.00 0.00 63 1015.0
20260831192828 95 88 3.0 15.0 0.00 0.00 0.00 64 1015.0
20260831192330 94 109 9.0 15.0 0.00 0.00 0.00 64 1015.2
20260831191842 94 119 7.0 12.0 0.00 0.00 0.00 64 1015.2
20260831191349 94 123 4.0 16.0 0.00 0.00 0.00 65 1015.4
20260831190836 94 111 5.0 16.0 0.00 0.00 0.00 66 1015.4
20260831190330 94 139 4.0 13.0 0.00 0.00 0.00 66 1015.4
20260831185839 94 136 6.0 14.0 0.00 0.00 0.00 66 1015.5
20260831185323 94 76 7.0 14.0 0.00 0.00 0.00 67 1015.6
20260831184840 94 57 5.0 13.0 0.00 0.00 0.00 67 1015.7
20260831184345 94 107 5.0 13.0 0.00 0.00 0.00 68 1015.6
20260831183838 94 135 7.0 13.0 0.00 0.00 0.00 69 1015.8
20260831183323 94 99 7.0 13.0 0.00 0.00 0.00 69 1015.9
20260831182828 93 106 6.0 17.0 0.00 0.00 0.00 70 1016.0
20260831182342 93 125 5.0 17.0 0.00 0.00 0.00 70 1016.1
20260831181848 93 126 10.0 16.0 0.00 0.00 0.00 71 1016.1
20260831181340 93 151 5.0 16.0 0.00 0.00 0.00 71 1016.1
20260831180829 93 123 8.0 16.0 0.00 0.00 0.00 72 1016.1
20260831180334 93 118 4.0 14.0 0.00 0.00 0.00 72 1016.1
20260831175820 93 146 8.0 14.0 0.00 0.00 0.00 73 1016.2
20260831175330 92 62 3.0 13.0 0.00 0.00 0.00 73 1016.3
20260831174836 92 105 7.0 13.0 0.00 0.00 0.00 74 1016.4
20260831174345 92 93 3.0 8.0 0.00 0.00 0.00 74 1016.4
20260831173830 92 139 4.0 9.0 0.00 0.00 0.00 74 1016.5
20260831173345 92 129 4.0 10.0 0.00 0.00 0.00 75 1016.5
20260831172829 92 161 4.0 13.0 0.00 0.00 0.00 75 1016.6
20260831172333 91 155 6.0 13.0 0.00 0.00 0.00 76 1016.6
20260831171825 91 93 7.0 11.0 0.00 0.00 0.00 76 1016.7
20260831171333 91 86 6.0 11.0 0.00 0.00 0.00 76 1016.7
20260831170843 91 92 3.0 8.0 0.00 0.00 0.00 77 1016.8
20260831170333 91 140 3.0 7.0 0.00 0.00 0.00 78 1016.8
20260831165819 91 71 3.0 7.0 0.00 0.00 0.00 78 1016.9
20260831165329 90 212 1.0 8.0 0.00 0.00 0.00 78 1017.0
20260831164833 90 188 5.0 9.0 0.00 0.00 0.00 79 1017.0
20260831164347 90 219 4.0 9.0 0.00 0.00 0.00 79 1017.0
20260831163859 90 231 4.0 9.0 0.00 0.00 0.00 79 1017.0
20260831163323 89 161 6.0 9.0 0.00 0.00 0.00 79 1017.0
20260831162828 89 103 3.0 8.0 0.00 0.00 0.00 80 1017.0
20260831162334 89 144 5.0 9.0 0.00 0.00 0.00 80 1017.1
20260831161818 89 132 7.0 9.0 0.00 0.00 0.00 80 1017.0
20260831161323 88 254 3.0 8.0 0.00 0.00 0.00 80 1017.0
20260831160834 88 145 2.0 5.0 0.00 0.00 0.00 80 1017.0
20260831160319 88 90 2.0 5.0 0.00 0.00 0.00 81 1017.0
20260831155822 88 178 1.0 9.0 0.00 0.00 0.00 81 1017.0
20260831155335 88 291 5.0 9.0 0.00 0.00 0.00 81 1017.0
20260831154842 87 238 3.0 9.0 0.00 0.00 0.00 81 1016.9
20260831154327 87 238 4.0 9.0 0.00 0.00 0.00 81 1016.8
20260831153833 86 220 2.0 4.0 0.00 0.00 0.00 81 1016.9
20260831153318 86 104 3.0 9.0 0.00 0.00 0.00 81 1016.8
20260831152830 86 350 2.0 9.0 0.00 0.00 0.00 81 1016.9
20260831152333 86 245 4.0 8.0 0.00 0.00 0.00 81 1016.9
20260831151819 85 246 0.0 7.0 0.00 0.00 0.00 81 1016.8
20260831151350 85 242 4.0 5.0 0.00 0.00 0.00 81 1016.9
20260831150845 85 268 3.0 9.0 0.00 0.00 0.00 81 1016.9
20260831150327 85 234 2.0 9.0 0.00 0.00 0.00 81 1016.9
20260831145819 85 246 4.0 8.0 0.00 0.00 0.00 81 1016.9
20260831145319 84 233 4.0 6.0 0.00 0.00 0.00 81 1016.9
20260831144831 84 153 3.0 6.0 0.00 0.00 0.00 81 1016.9
20260831144336 84 269 1.0 4.0 0.00 0.00 0.00 81 1016.8
20260831143821 83 270 2.0 6.0 0.00 0.00 0.00 81 1016.8
20260831143353 83 274 3.0 7.0 0.00 0.00 0.00 80 1016.8
20260831142820 83 261 3.0 7.0 0.00 0.00 0.00 80 1016.8
20260831142326 83 240 2.0 5.0 0.00 0.00 0.00 80 1016.8
20260831141858 82 171 2.0 5.0 0.00 0.00 0.00 80 1016.8
20260831141322 82 182 2.0 6.0 0.00 0.00 0.00 80 1016.8
20260831140834 81 220 2.0 6.0 0.00 0.00 0.00 80 1016.8
20260831140339 81 229 0.0 3.0 0.00 0.00 0.00 80 1016.7
20260831135850 81 230 1.0 5.0 0.00 0.00 0.00 79 1016.6
20260831135341 80 227 1.0 4.0 0.00 0.00 0.00 79 1016.7
20260831134827 80 215 0.0 1.0 0.00 0.00 0.00 79 1016.6
20260831134325 80 216 0.0 1.0 0.00 0.00 0.00 79 1016.6
20260831133836 79 215 0.0 2.0 0.00 0.00 0.00 79 1016.5
20260831133321 79 214 1.0 2.0 0.00 0.00 0.00 79 1016.5
20260831132824 78 214 0.0 1.0 0.00 0.00 0.00 79 1016.5
20260831132318 78 214 0.0 3.0 0.00 0.00 0.00 78 1016.4
20260831131822 77 214 0.0 3.0 0.00 0.00 0.00 78 1016.4
20260831131327 77 215 0.0 0.0 0.00 0.00 0.00 78 1016.3
20260831130841 77 215 0.0 0.0 0.00 0.00 0.00 78 1016.3
20260831130325 76 215 0.0 0.0 0.00 0.00 0.00 78 1016.2
20260831125829 75 215 0.0 0.0 0.00 0.00 0.00 78 1016.1
20260831125318 75 215 0.0 0.0 0.00 0.00 0.00 77 1016.1
20260831124820 75 215 0.0 0.0 0.00 0.00 0.00 77 1016.0
20260831124332 75 215 0.0 0.0 0.00 0.00 0.00 77 1015.9
20260831123818 75 215 0.0 0.0 0.00 0.00 0.00 77 1015.9
20260831123320 75 215 0.0 0.0 0.00 0.00 0.00 76 1016.0
20260831122834 75 215 0.0 2.0 0.00 0.00 0.00 76 1016.0
20260831122318 75 215 1.0 2.0 0.00 0.00 0.00 76 1015.8
20260831121832 75 216 0.0 0.0 0.00 0.00 0.00 76 1015.7
20260831121337 75 216 0.0 0.0 0.00 0.00 0.00 76 1015.6
20260831120826 75 216 0.0 0.0 0.00 0.00 0.00 76 1015.6
20260831120334 75 216 0.0 1.0 0.00 0.00 0.00 75 1015.5
20260831115823 75 216 0.0 2.0 0.00 0.00 0.00 75 1015.5
20260831115325 75 216 0.0 3.0 0.00 0.00 0.00 75 1015.5
20260831114841 76 216 2.0 3.0 0.00 0.00 0.00 75 1015.5
20260831114347 76 215 2.0 3.0 0.00 0.00 0.00 75 1015.5
20260831113842 76 215 1.0 3.0 0.00 0.00 0.00 75 1015.5
20260831113331 76 215 1.0 3.0 0.00 0.00 0.00 75 1015.5
20260831112822 76 215 2.0 3.0 0.00 0.00 0.00 74 1015.4
20260831112327 76 215 2.0 4.0 0.00 0.00 0.00 74 1015.4
20260831111839 76 214 2.0 4.0 0.00 0.00 0.00 74 1015.4
20260831111325 76 214 3.0 4.0 0.00 0.00 0.00 74 1015.3
20260831110830 76 213 2.0 4.0 0.00 0.00 0.00 74 1015.2
20260831110318 76 214 3.0 5.0 0.00 0.00 0.00 74 1015.2